Weather in Usugli

Russia / Zabaykalsky Krai     52°39′08″N   115°15′24″E
temp.,
°C
wind,
m/s
gust,
m/s
humid.,
%
clouds,
%
prec.,
mm/h
press.,
hPa
HPBL,
m
24 may, tue
tue2400:00+7nnw37585 0.0 1015131
03:00+5nnw357211 0.0 101873
06:00+5nnw24712 0.0 102077
09:00+14n353942 0.0 1020972
12:00+18n462498 0.0 10193203
15:00+21n561993 0.0 10173509
18:00+21n461843 0.0 10173328
21:00+14nnw333386 0.0 101942
25 may, wed
wed2500:00+10nnw22425 0.0 102118
03:00+9nw21505 0.0 102211
06:00+8nw11545 0.0 102210
09:00+18ssw11325 0.0 1019529
12:00+23wnw23194 0.0 10162861
15:00+24wnw44165 0.0 10133182
18:00+24wnw34165 0.0 10103335
21:00+17wnw223069 0.0 101111
26 may, thu
thu2600:00+12nnw223742 0.0 101120
03:00+10nnw22465 0.0 101015
06:00+9wnw11492 0.0 100910
09:00+18ssw23280 0.0 1006473
12:00+23w671855 0.0 10033225
15:00+25w581669 0.0 9993661
18:00+24w5817100 0.0 9963390
21:00+18sw51034100 0.1 997432
27 may, fri
fri2700:00+11nw22630 0.1 99732
03:00+8wnw22713 0.1 99636
06:00+7nw237410 0.0 99762
09:00+11nw3359100 0.2 9961335
12:00+7nne487790 2.8 1000708
15:00+15nnw682898 2.8 9962853
18:00+14n583087 0.0 9972526
21:00+8nne59535 0.0 1000745
28 may, sat
sat2800:00+4n386622 0.0 1003393
03:00+1nnw25795 0.0 1004126
06:00+1wnw26745 0.0 1004161
09:00+8n574183 0.0 10021757
12:00+12nnw4633100 0.0 10002606
15:00+12n562989 0.0 9992401
18:00+13n463096 0.0 9992403
21:00+8nne3753100 0.1 1002422